TimeCDT,TemperatureF,Dew PointF,Humidity,Sea Level PressureIn,VisibilityMPH,Wind Direction,Wind SpeedMPH,Gust SpeedMPH,PrecipitationIn,Events,Conditions,WindDirDegrees,DateUTC
12:11 AM,32.0,30.2,93,29.92,10.0,West,5.8,-,N/A,,Clear,280,2012-10-10 05:11:00
12:51 AM,32.0,30.2,93,29.92,10.0,West,3.5,-,N/A,,Clear,270,2012-10-10 05:51:00
1:11 AM,32.0,30.2,93,29.93,10.0,West,4.6,-,N/A,,Scattered Clouds,280,2012-10-10 06:11:00
1:32 AM,32.0,30.2,93,29.93,10.0,West,3.5,-,N/A,,Mostly Cloudy,260,2012-10-10 06:32:00
1:51 AM,32.0,30.2,93,29.93,10.0,WSW,3.5,-,N/A,,Overcast,250,2012-10-10 06:51:00
2:10 AM,32.0,30.2,93,29.94,10.0,WSW,4.6,-,N/A,,Mostly Cloudy,250,2012-10-10 07:10:00
2:31 AM,32.0,28.4,87,29.94,10.0,WSW,4.6,-,N/A,,Scattered Clouds,250,2012-10-10 07:31:00
2:51 AM,32.0,28.4,87,29.94,10.0,West,4.6,-,N/A,,Clear,260,2012-10-10 07:51:00
3:11 AM,32.0,28.4,87,29.94,10.0,West,4.6,-,N/A,,Clear,260,2012-10-10 08:11:00
3:31 AM,32.0,28.4,87,29.95,10.0,West,4.6,-,N/A,,Scattered Clouds,270,2012-10-10 08:31:00
3:51 AM,32.0,28.4,87,29.95,10.0,WSW,3.5,-,N/A,,Mostly Cloudy,250,2012-10-10 08:51:00
4:12 AM,32.0,28.4,87,29.95,10.0,WSW,6.9,-,N/A,,Scattered Clouds,250,2012-10-10 09:12:00
4:31 AM,32.0,30.2,93,29.95,10.0,West,5.8,-,N/A,,Mostly Cloudy,270,2012-10-10 09:31:00
4:51 AM,32.0,30.2,93,29.96,10.0,West,5.8,-,N/A,,Overcast,280,2012-10-10 09:51:00
5:11 AM,32.0,30.2,93,29.96,10.0,West,4.6,-,N/A,,Overcast,260,2012-10-10 10:11:00
5:32 AM,32.0,30.2,93,29.96,10.0,WSW,5.8,-,N/A,,Overcast,250,2012-10-10 10:32:00
5:51 AM,32.0,30.2,93,29.96,10.0,West,3.5,-,N/A,,Overcast,260,2012-10-10 10:51:00
6:11 AM,32.0,30.2,93,29.97,10.0,WSW,4.6,-,N/A,,Overcast,250,2012-10-10 11:11:00
6:29 AM,32.0,30.2,93,29.97,10.0,WSW,5.8,-,N/A,,Overcast,250,2012-10-10 11:29:00
6:51 AM,32.0,30.2,93,29.98,10.0,West,5.8,-,N/A,,Overcast,270,2012-10-10 11:51:00
7:09 AM,32.0,30.2,93,29.99,10.0,West,4.6,-,N/A,,Overcast,260,2012-10-10 12:09:00
7:31 AM,32.0,30.2,93,29.99,10.0,West,3.5,-,N/A,,Overcast,260,2012-10-10 12:31:00
7:51 AM,32.0,30.2,93,29.99,10.0,WSW,3.5,-,N/A,,Overcast,250,2012-10-10 12:51:00
8:10 AM,32.0,30.2,93,29.99,10.0,WSW,4.6,-,N/A,,Scattered Clouds,250,2012-10-10 13:10:00
8:31 AM,32.0,30.2,93,30.00,10.0,WSW,3.5,-,N/A,,Clear,240,2012-10-10 13:31:00
8:51 AM,32.0,30.2,93,30.00,10.0,WSW,4.6,-,N/A,,Clear,250,2012-10-10 13:51:00
9:11 AM,33.8,30.2,87,30.01,10.0,West,3.5,-,N/A,,Clear,270,2012-10-10 14:11:00
9:29 AM,35.6,32.0,87,30.01,10.0,West,5.8,-,N/A,,Clear,270,2012-10-10 14:29:00
9:51 AM,35.6,32.0,87,30.00,10.0,West,5.8,-,N/A,,Clear,280,2012-10-10 14:51:00
10:11 AM,37.4,30.2,75,30.00,10.0,West,8.1,-,N/A,,Clear,260,2012-10-10 15:11:00
10:31 AM,37.4,30.2,75,30.01,10.0,WNW,6.9,-,N/A,,Clear,290,2012-10-10 15:31:00
10:49 AM,39.2,30.2,70,30.01,10.0,West,8.1,-,N/A,,Scattered Clouds,270,2012-10-10 15:49:00
11:11 AM,41.0,28.4,61,30.02,10.0,NW,8.1,-,N/A,,Scattered Clouds,310,2012-10-10 16:11:00
11:51 AM,42.8,26.6,53,30.02,10.0,WNW,11.5,17.3,N/A,,Scattered Clouds,300,2012-10-10 16:51:00
12:11 PM,42.8,26.6,53,30.01,10.0,West,8.1,-,N/A,,Clear,280,2012-10-10 17:11:00
12:32 PM,42.8,24.8,49,30.01,10.0,WNW,9.2,-,N/A,,Scattered Clouds,290,2012-10-10 17:32:00
12:50 PM,42.8,26.6,53,30.00,10.0,West,6.9,17.3,N/A,,Scattered Clouds,270,2012-10-10 17:50:00
1:11 PM,44.6,26.6,49,29.99,10.0,WSW,9.2,-,N/A,,Scattered Clouds,250,2012-10-10 18:11:00
1:29 PM,44.6,26.6,49,29.99,10.0,West,11.5,-,N/A,,Scattered Clouds,280,2012-10-10 18:29:00
1:51 PM,42.8,26.6,53,29.99,10.0,West,9.2,-,N/A,,Scattered Clouds,260,2012-10-10 18:51:00
2:10 PM,44.6,26.6,49,29.98,10.0,West,10.4,-,N/A,,Mostly Cloudy,260,2012-10-10 19:10:00
2:31 PM,44.6,26.6,49,29.98,10.0,West,6.9,-,N/A,,Scattered Clouds,270,2012-10-10 19:31:00
2:51 PM,44.6,26.6,49,29.97,10.0,WSW,8.1,-,N/A,,Scattered Clouds,240,2012-10-10 19:51:00
3:09 PM,44.6,26.6,49,29.97,10.0,WSW,10.4,16.1,N/A,,Scattered Clouds,240,2012-10-10 20:09:00
3:31 PM,44.6,26.6,49,29.96,10.0,SW,8.1,-,N/A,,Mostly Cloudy,220,2012-10-10 20:31:00
3:50 PM,44.6,26.6,49,29.95,10.0,WSW,9.2,-,N/A,,Mostly Cloudy,250,2012-10-10 20:50:00
4:11 PM,44.6,26.6,49,29.95,10.0,WSW,5.8,-,N/A,,Overcast,250,2012-10-10 21:11:00
4:31 PM,44.6,26.6,49,29.95,10.0,WSW,5.8,-,N/A,,Mostly Cloudy,240,2012-10-10 21:31:00
4:51 PM,44.6,26.6,49,29.94,10.0,WSW,4.6,-,N/A,,Mostly Cloudy,250,2012-10-10 21:51:00
5:11 PM,44.6,26.6,49,29.93,10.0,WSW,5.8,-,N/A,,Overcast,250,2012-10-10 22:11:00
5:27 PM,44.6,23.0,43,29.93,10.0,WSW,5.8,-,N/A,,Overcast,250,2012-10-10 22:27:00
5:51 PM,44.6,23.0,43,29.93,10.0,West,4.6,-,N/A,,Overcast,270,2012-10-10 22:51:00
6:11 PM,44.6,24.8,46,29.93,10.0,West,3.5,-,N/A,,Mostly Cloudy,260,2012-10-10 23:11:00
6:31 PM,44.6,26.6,49,29.93,10.0,WSW,9.2,17.3,N/A,,Mostly Cloudy,240,2012-10-10 23:31:00
6:51 PM,44.6,24.8,46,29.94,10.0,WSW,8.1,-,N/A,,Overcast,240,2012-10-10 23:51:00
7:09 PM,42.8,26.6,53,29.94,10.0,West,6.9,-,N/A,,Overcast,270,2012-10-11 00:09:00
7:31 PM,42.8,26.6,53,29.94,10.0,West,5.8,-,N/A,,Overcast,280,2012-10-11 00:31:00
7:51 PM,42.8,28.4,57,29.94,10.0,WNW,3.5,-,N/A,,Overcast,290,2012-10-11 00:51:00
8:11 PM,42.8,28.4,57,29.94,10.0,WNW,3.5,-,N/A,,Overcast,290,2012-10-11 01:11:00
8:31 PM,42.8,28.4,57,29.93,10.0,Calm,Calm,-,N/A,,Overcast,0,2012-10-11 01:31:00
8:51 PM,41.0,30.2,65,29.94,10.0,SW,4.6,-,N/A,,Overcast,230,2012-10-11 01:51:00
9:11 PM,41.0,32.0,70,29.93,10.0,Calm,Calm,-,N/A,,Overcast,0,2012-10-11 02:11:00
9:31 PM,39.2,32.0,75,29.93,10.0,Calm,Calm,-,N/A,,Overcast,0,2012-10-11 02:31:00
9:51 PM,37.4,32.0,81,29.93,10.0,Calm,Calm,-,N/A,,Overcast,0,2012-10-11 02:51:00
10:10 PM,35.6,32.0,87,29.93,10.0,NE,4.6,-,0.01,,Mostly Cloudy,40,2012-10-11 03:10:00
10:31 PM,35.6,32.0,87,29.92,10.0,NNE,4.6,-,0.03,,Mostly Cloudy,30,2012-10-11 03:31:00
10:51 PM,33.8,32.0,93,29.93,7.0,Calm,Calm,-,0.04,,Clear,0,2012-10-11 03:51:00
11:11 PM,33.8,32.0,93,29.92,4.0,NNE,5.8,-,0.01,,Clear,30,2012-10-11 04:11:00
11:31 PM,33.8,32.0,93,29.91,7.0,NNE,4.6,-,0.01,,Mostly Cloudy,30,2012-10-11 04:31:00
11:52 PM,33.8,32.0,93,29.92,7.0,Calm,Calm,-,0.02,,Overcast,0,2012-10-11 04:52:00